Regional Weather Roundup
Issued by NWS

Home | Current Version | Previous Version | Text Only | Print | Product List | Glossary Off
Versions: 1 2 3 4 5 6 7 8 9 10 11 12 13 14 15 16 17 18 19 20 21 22 23 24 25 26 27 28 29 30 31 32 33 34 35 36 37 38 39 40 41 42 43 44 45 46 47 48 49 50

000
ASUS45 KABQ 250401
RWRNM
WEATHER ROUNDUP FOR NEW MEXICO
NATIONAL WEATHER SERVICE ALBUQUERQUE NM
1000 PM MDT THU JUL 24 2014

NOTE: "FAIR" MEANS FEW OR NO CLOUDS BELOW 12,000 FEET AGL WITH NO
       SIGNIFICANT WEATHER OR OBSTRUCTIONS TO VISION.

      THIS PRODUCT IS RELEASED AS TWO VERSIONS.  ONE VERSION NEAR
      THE TOP OF THE HOUR CONTAINING PRELIMINARY DATA FROM ALBUQUERQUE
      AND OTHER STATIONS.  A FINAL VERSION WITH ADDITIONAL DATA IS
      ISSUED ABOUT 10 MINUTES AFTER THE HOUR.

NMZ501-503-504-510>518-250500-
NORTHWEST PLATEAU/NORTHCENTRAL MOUNTAINS

CITY           SKY/WX    TMP DP  RH WIND       PRES   REMARKS
FARMINGTON     CLEAR     78  51  38 N6        30.17R
LOS ALAMOS     PTCLDY    74  37  25 SW9       30.33S
SANTA FE       CLEAR     74  43  32 E3        30.26R
TAOS           PTCLDY    70  37  30 SW6       30.32R
ANGEL FIRE     FAIR      62  42  48 NE6       30.43R

$$
NMZ402-403-502-505>509-250500-
WESTCENTRAL MOUNTAINS/SOUTHWEST MOUNTAINS

CITY           SKY/WX    TMP DP  RH WIND       PRES   REMARKS
GALLUP         CLEAR     77  46  33 NW8       30.25R
GRANTS         PTCLDY    73  42  33 SE3       30.28R

$$
NMZ407-409-411-412-250500-
SOUTHERN DESERTS

CITY           SKY/WX    TMP DP  RH WIND       PRES   REMARKS
LORDSBURG      FAIR      81  41  24 SE7       30.11R
DEMING         CLEAR     82  49  31 SW5       30.11R
LAS CRUCES     CLEAR     84  41  21 S3        30.14R
HOLLOMAN AFB   CLOUDY    86  42  21 S7        30.10R
T OR C         CLEAR     82  39  21 W6        30.15R

$$
NMZ519>523-250500-
CENTRAL VALLEYS/CENTRAL HIGHLANDS

CITY           SKY/WX    TMP DP  RH WIND       PRES   REMARKS
ALBUQUERQUE    PTCLDY    81  44  27 SE7       30.18R
DOUBLE EAGLE   CLEAR     73  43  33 S7        30.22R
CLINES CORNERS MOCLDY    68  42  38 SW10      30.32R
BELEN          FAIR      78  41  27 S7        30.17R
SOCORRO        FAIR      84  38  19 SW9       30.15R

$$
NMZ524>526-539-540-250500-
SOUTHCENTRAL MOUNTAINS

CITY           SKY/WX    TMP DP  RH WIND       PRES   REMARKS
RUIDOSO        NOT AVBL

$$
NMZ527>531-250500-
NORTHEAST HIGHLANDS/NORTHEAST PLAINS

CITY           SKY/WX    TMP DP  RH WIND       PRES   REMARKS
LAS VEGAS      CLEAR     69  43  38 S14       30.30R
RATON          NOT AVBL
CLAYTON        PTCLDY    79  42  26 S15       30.12R

$$
NMZ532>537-250500-
EASTCENTRAL PLAINS

CITY           SKY/WX    TMP DP  RH WIND       PRES   REMARKS
TUCUMCARI      CLEAR     83  48  29 S10       30.07R
CANNON AFB     CLEAR     75  56  50 S9        30.15R
CLOVIS AIRPORT NOT AVBL

$$
NMZ028-029-538-250500-
SOUTHEAST PLAINS

CITY           SKY/WX    TMP DP  RH WIND       PRES   REMARKS
ROSWELL        CLEAR     82  48  30 S6        30.08R
ARTESIA        CLEAR     84  48  28 SE8       30.08R
CARLSBAD       PTCLDY    86  43  22 S7        30.05R
HOBBS          CLEAR     82  46  28 E8        30.12R


$$


USA.gov is the U.S. government's official web portal to all federal, state and local government web resources and services.